QPF
0.00 0.00 0.00 0.00 0.00 0.00 0.00 0.00 0.00 0.00 0.00 0.00 0.00 0.00 0.00 0.00 0.00 0.00 0.00 0.00 0.00 0.00 0.00 0.00 0.00 0.00 0.00 0.00 0.00 0.00 0.00 0.00 0.00 0.00 0.00 0.01 0.00 0.00 0.00 0.00 0.00 0.00 0.01 0.02
0.00 0.00 0.00 0.00 0.00 0.00 0.00 0.00 0.00 0.00 0.00 0.00 0.00 0.00 0.00 0.00 0.00 0.00 0.00 0.00 0.00 0.00 0.00 0.00 0.00 0.00 0.00 0.00 0.00 0.00 0.00 0.00 0.00 0.00 0.00 0.00 0.00 0.00 0.00 0.00 0.00 0.00 0.01 0.02
0.01 0.00 0.00 0.00 0.00 0.00 0.00 0.00 0.00 0.00 0.00 0.00 0.00 0.00 0.00 0.00 0.00 0.00 0.00 0.00 0.00 0.00 0.00 0.00 0.00 0.00 0.00 0.00 0.00 0.00 0.00 0.00 0.00 0.00 0.00 0.00 0.00 0.00 0.01 0.01 0.01 0.02 0.02 0.03
0.02 0.01 0.01 0.00 0.00 0.00 0.00 0.00 0.00 0.00 0.00 0.00 0.00 0.00 0.00 0.00 0.00 0.00 0.00 0.00 0.00 0.00 0.00 0.00 0.00 0.00 0.00 0.00 0.00 0.00 0.00 0.00 0.00 0.00 0.00 0.00 0.00 0.02 0.03 0.03 0.05 0.06 0.05 0.05
0.02 0.02 0.01 0.00 0.00 0.00 0.00 0.00 0.00 0.00 0.00 0.00 0.00 0.00 0.00 0.00 0.00 0.00 0.00 0.00 0.00 0.00 0.00 0.00 0.00 0.00 0.00 0.00 0.00 0.00 0.00 0.00 0.00 0.00 0.00 0.00 0.01 0.02 0.04 0.06 0.07 0.07 0.07 0.08
0.03 0.04 0.01 0.00 0.00 0.00 0.00 0.00 0.00 0.00 0.00 0.00 0.00 0.00 0.00 0.00 0.00 0.00 0.00 0.00 0.00 0.00 0.00 0.00 0.00 0.00 0.00 0.00 0.00 0.00 0.00 0.00 0.00 0.00 0.00 0.00 0.00 0.01 0.03 0.06 0.08 0.09 0.10 0.10
0.02 0.03 0.01 0.00 0.00 0.00 0.00 0.00 0.00 0.00 0.00 0.00 0.00 0.00 0.00 0.00 0.00 0.00 0.00 0.00 0.00 0.00 0.00 0.00 0.00 0.00 0.00 0.00 0.00 0.00 0.00 0.00 0.00 0.00 0.00 0.00 0.00 0.00 0.01 0.06 0.09 0.11 0.12 0.11
0.05 0.03 0.01 0.00 0.00 0.00 0.00 0.00 0.00 0.00 0.00 0.00 0.00 0.00 0.00 0.00 0.00 0.00 0.00 0.00 0.00 0.00 0.00 0.00 0.00 0.00 0.00 0.00 0.00 0.00 0.00 0.00 0.00 0.00 0.00 0.00 0.00 0.00 0.00 0.01 0.04 0.08 0.11 0.10
0.02 0.02 0.00 0.00 0.00 0.00 0.00 0.00 0.00 0.00 0.00 0.00 0.00 0.00 0.00 0.00 0.00 0.00 0.00 0.00 0.00 0.00 0.00 0.00 0.00 0.00 0.00 0.00 0.00 0.00 0.00 0.00 0.00 0.00 0.00 0.00 0.00 0.00 0.00 0.00 0.02 0.06 0.06 0.06
0.00 0.00 0.00 0.00 0.00 0.00 0.00 0.00 0.00 0.00 0.00 0.00 0.00 0.00 0.00 0.00 0.00 0.00 0.00 0.00 0.00 0.00 0.00 0.00 0.00 0.00 0.00 0.00 0.00 0.00 0.00 0.00 0.00 0.00 0.00 0.00 0.00 0.00 0.00 0.00 0.01 0.02 0.03 0.05
0.01 0.00 0.00 0.00 0.00 0.00 0.00 0.00 0.00 0.00 0.00 0.00 0.00 0.00 0.00 0.00 0.00 0.00 0.00 0.00 0.00 0.00 0.00 0.00 0.00 0.00 0.00 0.00 0.00 0.00 0.00 0.00 0.00 0.00 0.00 0.00 0.00 0.00 0.00 0.00 0.02 0.02 0.02 0.03
0.01 0.00 0.00 0.00 0.00 0.00 0.00 0.00 0.00 0.00 0.00 0.00 0.00 0.00 0.00 0.00 0.00 0.00 0.00 0.00 0.00 0.00 0.00 0.00 0.00 0.00 0.00 0.00 0.00 0.00 0.00 0.00 0.00 0.00 0.00 0.00 0.00 0.00 0.02 0.03 0.04 0.04 0.05 0.04
0.00 0.00 0.00 0.00 0.00 0.00 0.00 0.00 0.00 0.00 0.00 0.00 0.00 0.00 0.00 0.00 0.00 0.00 0.00 0.00 0.00 0.00 0.00 0.00 0.00 0.00 0.00 0.00 0.00 0.00 0.00 0.00 0.00 0.00 0.00 0.00 0.00 0.00 0.00 0.01 0.03 0.03 0.03 0.04
0.00 0.00 0.00 0.01 0.01 0.00 0.00 0.00 0.00 0.00 0.00 0.00 0.00 0.00 0.00 0.00 0.00 0.00 0.00 0.00 0.00 0.00 0.00 0.00 0.00 0.00 0.00 0.00 0.00 0.00 0.00 0.00 0.00 0.00 0.00 0.00 0.00 0.00 0.00 0.00 0.02 0.03 0.03 0.04
0.00 0.01 0.01 0.00 0.00 0.00 0.00 0.00 0.00 0.00 0.00 0.00 0.00 0.00 0.00 0.00 0.00 0.00 0.00 0.00 0.00 0.00 0.00 0.00 0.00 0.00 0.00 0.01 0.01 0.00 0.00 0.00 0.00 0.00 0.00 0.02 0.00 0.00 0.00 0.00 0.01 0.02 0.02 0.04
0.00 0.00 0.00 0.00 0.00 0.00 0.00 0.00 0.00 0.00 0.00 0.00 0.00 0.00 0.00 0.00 0.00 0.00 0.00 0.00 0.00 0.00 0.00 0.00 0.00 0.00 0.00 0.01 0.02 0.03 0.02 0.05 0.03 0.00 0.01 0.01 0.01 0.01 0.01 0.02 0.03 0.04 0.02 0.02
0.00 0.00 0.00 0.00 0.00 0.00 0.00 0.00 0.00 0.00 0.01 0.01 0.00 0.00 0.00 0.00 0.00 0.00 0.01 0.00 0.02 0.03 0.02 0.02 0.01 0.01 0.02 0.02 0.02 0.02 0.05 0.06 0.05 0.02 0.01 0.01 0.01 0.02 0.03 0.04 0.05 0.04 0.04 0.04
0.00 0.00 0.00 0.00 0.00 0.00 0.00 0.00 0.00 0.01 0.02 0.01 0.00 0.00 0.00 0.00 0.01 0.02 0.01 0.01 0.02 0.02 0.03 0.07 0.10 0.09 0.08 0.07 0.05 0.05 0.05 0.04 0.03 0.02 0.03 0.06 0.06 0.05 0.06 0.07 0.08 0.09 0.13 0.20
0.00 0.00 0.00 0.00 0.00 0.00 0.00 0.00 0.01 0.02 0.02 0.00 0.00 0.00 0.00 0.01 0.02 0.03 0.03 0.03 0.02 0.02 0.05 0.09 0.07 0.12 0.14 0.11 0.16 0.12 0.07 0.06 0.08 0.07 0.07 0.11 0.15 0.13 0.10 0.09 0.12 0.18 0.20 0.22
0.00 0.00 0.00 0.00 0.00 0.00 0.00 0.01 0.04 0.03 0.02 0.00 0.00 0.00 0.00 0.01 0.04 0.05 0.05 0.04 0.05 0.05 0.05 0.05 0.03 0.06 0.15 0.20 0.20 0.22 0.19 0.12 0.13 0.14 0.13 0.17 0.18 0.19 0.18 0.16 0.16 0.16 0.21 0.23
0.00 0.00 0.00 0.00 0.00 0.00 0.00 0.03 0.08 0.03 0.01 0.00 0.00 0.00 0.00 0.02 0.03 0.05 0.04 0.02 0.05 0.04 0.02 0.02 0.02 0.02 0.05 0.14 0.19 0.17 0.20 0.16 0.20 0.14 0.12 0.14 0.27 0.29 0.24 0.21 0.18 0.14 0.12 0.11
0.00 0.00 0.00 0.00 0.00 0.00 0.00 0.03 0.11 0.05 0.01 0.00 0.00 0.00 0.00 0.00 0.00 0.00 0.01 0.02 0.04 0.04 0.02 0.03 0.04 0.04 0.06 0.08 0.07 0.09 0.14 0.19 0.19 0.13 0.12 0.12 0.16 0.25 0.24 0.16 0.12 0.12 0.09 0.06
0.00 0.00 0.00 0.00 0.00 0.00 0.00 0.02 0.10 0.11 0.05 0.01 0.00 0.00 0.00 0.00 0.00 0.00 0.00 0.00 0.00 0.00 0.00 0.01 0.03 0.06 0.07 0.06 0.09 0.12 0.12 0.12 0.12 0.07 0.06 0.07 0.09 0.12 0.13 0.13 0.09 0.06 0.04 0.02
0.00 0.00 0.00 0.00 0.00 0.00 0.00 0.01 0.08 0.12 0.09 0.06 0.01 0.01 0.00 0.00 0.00 0.00 0.00 0.00 0.00 0.00 0.00 0.00 0.00 0.00 0.01 0.02 0.04 0.06 0.06 0.05 0.04 0.05 0.05 0.04 0.04 0.04 0.03 0.03 0.03 0.02 0.01 0.00
0.00 0.00 0.00 0.00 0.00 0.00 0.00 0.00 0.03 0.08 0.07 0.04 0.03 0.01 0.00 0.00 0.00 0.00 0.00 0.00 0.00 0.00 0.00 0.00 0.00 0.00 0.00 0.00 0.00 0.00 0.01 0.01 0.00 0.01 0.01 0.01 0.01 0.01 0.01 0.00 0.00 0.00 0.00 0.00
0.00 0.00 0.00 0.00 0.00 0.00 0.00 0.00 0.00 0.01 0.02 0.01 0.00 0.00 0.00 0.00 0.00 0.00 0.00 0.00 0.00 0.00 0.00 0.00 0.00 0.00 0.00 0.00 0.00 0.00 0.00 0.00 0.00 0.00 0.00 0.00 0.00 0.00 0.00 0.00 0.00 0.00 0.00 0.00
0.00 0.00 0.00 0.00 0.00 0.00 0.00 0.00 0.00 0.00 0.00 0.00 0.01 0.01 0.00 0.00 0.00 0.00 0.00 0.00 0.00 0.00 0.00 0.00 0.00 0.00 0.00 0.00 0.00 0.00 0.00 0.00 0.00 0.00 0.00 0.00 0.00 0.00 0.00 0.00 0.00 0.00 0.00 0.00
MSLP
1011.02 1009.94 1009.40 1008.55 1007.82 1007.27 1006.69 1006.19 1005.86 1004.68 1003.09 1002.11 1002.07 1001.84 1001.82 1002.04 1002.34 1002.16 1002.12 1002.27 1002.38 1002.07 1001.79 1001.66 1001.60 1001.63 1001.58 1001.47 1001.30 1001.08 1000.78 1000.44 1000.11 1000.27 1000.20 999.98 999.91 1000.28 1000.38 1000.67 1001.10 1001.57 1002.24 1002.88
1012.10 1010.76 1009.24 1007.97 1007.35 1006.85 1006.21 1005.63 1005.07 1004.05 1002.88 1001.82 1001.34 1001.46 1001.55 1001.75 1001.79 1001.66 1001.71 1001.97 1002.09 1001.96 1001.83 1001.68 1001.57 1001.49 1001.54 1001.58 1001.38 1001.24 1000.87 1000.71 1000.47 1000.24 1000.67 1000.85 1000.84 1000.90 1000.94 1001.01 1001.31 1001.68 1002.18 1002.72
1011.96 1010.41 1009.31 1008.18 1006.90 1005.61 1005.26 1004.84 1004.26 1003.09 1002.30 1001.60 1001.47 1001.46 1001.51 1001.41 1001.40 1001.54 1001.64 1001.78 1001.84 1001.87 1001.76 1001.59 1001.42 1001.35 1001.22 1001.12 1001.14 1000.99 1000.71 1000.51 1000.56 1000.63 1000.72 1001.38 1001.59 1001.56 1001.65 1001.58 1001.66 1001.96 1002.41 1002.71
1012.34 1011.26 1009.04 1006.68 1005.87 1005.53 1005.27 1004.62 1004.03 1003.27 1002.47 1001.89 1001.56 1001.48 1001.40 1001.38 1001.40 1001.46 1001.56 1001.67 1001.66 1001.59 1001.54 1001.47 1001.51 1001.44 1001.25 1001.05 1000.83 1000.65 1000.34 1000.18 1000.17 1000.35 1000.71 1001.50 1001.91 1001.95 1002.04 1002.23 1002.27 1002.33 1002.73 1003.20
1012.24 1010.26 1008.22 1006.54 1004.94 1004.80 1004.46 1003.96 1003.32 1002.74 1002.51 1002.41 1002.32 1002.03 1001.78 1001.61 1001.85 1002.23 1002.34 1002.14 1001.79 1001.74 1001.71 1001.73 1001.58 1001.35 1001.10 1000.77 1000.59 1000.26 999.98 999.88 999.94 1000.08 1000.31 1001.25 1002.02 1002.25 1002.18 1002.34 1002.65 1002.79 1003.03 1003.58
1011.70 1010.10 1007.68 1005.53 1005.02 1005.04 1005.06 1004.29 1002.75 1003.00 1003.03 1002.97 1003.19 1002.92 1002.20 1001.98 1002.65 1002.98 1002.89 1002.84 1002.57 1002.00 1001.91 1001.78 1001.47 1001.16 1000.66 1000.33 1000.20 1000.04 999.82 999.71 999.77 999.96 1000.01 1000.36 1001.64 1002.27 1002.35 1002.45 1002.78 1003.15 1003.43 1003.85
1010.97 1009.61 1007.52 1005.81 1005.18 1005.08 1005.18 1004.96 1004.34 1004.50 1004.25 1003.92 1003.86 1004.05 1003.65 1003.07 1002.58 1002.37 1002.28 1002.16 1002.10 1001.72 1001.32 1001.15 1001.16 1000.74 1000.24 999.98 999.73 999.70 999.67 999.61 999.76 999.84 999.85 1000.00 1001.37 1002.13 1002.45 1002.73 1003.10 1003.59 1003.91 1004.42
1009.99 1008.68 1006.99 1006.00 1005.69 1005.93 1005.63 1005.23 1004.93 1004.66 1004.56 1004.26 1004.19 1003.99 1003.69 1003.04 1002.28 1001.64 1001.12 1000.85 1000.78 1000.57 1000.27 1000.11 1000.14 1000.03 999.64 999.27 999.02 999.22 999.19 999.32 999.49 999.75 1000.03 1000.27 1001.21 1001.98 1002.43 1002.76 1003.06 1003.68 1004.10 1004.49
1009.41 1008.18 1006.68 1006.32 1006.05 1005.83 1005.47 1005.24 1005.28 1004.98 1004.66 1004.32 1003.72 1003.17 1002.83 1002.40 1001.78 1000.93 1000.24 999.77 999.55 999.31 999.06 998.86 998.74 998.69 998.47 998.38 998.64 998.65 998.70 998.86 999.27 999.53 1000.10 1000.34 1001.29 1001.81 1002.48 1002.66 1002.92 1003.26 1003.98 1004.64
1008.49 1007.71 1006.83 1006.16 1005.87 1005.56 1005.31 1005.06 1004.92 1004.84 1004.47 1004.15 1003.36 1002.83 1002.33 1002.05 1001.29 1000.43 999.57 998.67 998.45 998.12 997.82 997.59 997.62 997.54 997.51 997.80 998.11 998.14 998.06 998.21 999.10 999.93 1000.12 1000.50 1000.88 1001.45 1001.93 1002.20 1002.66 1003.06 1003.42 1004.29
1007.85 1007.09 1006.57 1006.06 1005.56 1005.13 1004.80 1004.63 1004.52 1004.34 1004.20 1003.62 1003.11 1002.53 1002.14 1001.42 1000.78 999.91 999.20 998.47 997.59 997.21 996.92 996.71 996.76 996.63 996.69 996.89 997.16 997.25 997.47 997.68 998.33 999.12 999.92 1000.34 1000.56 1000.73 1001.18 1001.40 1001.66 1002.20 1002.78 1003.34
1006.61 1006.23 1005.91 1005.28 1004.93 1004.72 1004.24 1004.06 1004.05 1004.15 1003.91 1003.62 1003.43 1002.71 1002.26 1001.36 1000.74 1000.04 999.10 998.32 997.47 996.66 996.11 995.88 995.82 995.60 995.58 995.75 995.84 995.89 996.38 996.97 998.07 998.90 999.62 1000.04 1000.34 1000.61 1000.96 1001.29 1001.50 1002.02 1002.44 1003.06
1005.65 1005.16 1004.88 1004.55 1004.28 1004.04 1004.04 1004.03 1003.91 1003.90 1003.83 1003.59 1003.46 1003.02 1002.48 1001.85 1001.35 1000.34 999.43 998.68 997.72 997.13 996.74 996.47 996.10 995.69 995.59 995.80 996.01 995.76 995.65 995.77 996.94 997.89 998.88 999.54 999.90 1000.22 1000.77 1001.72 1001.67 1002.01 1002.80 1003.45
1004.93 1004.72 1004.69 1004.52 1004.31 1004.23 1004.25 1003.77 1003.79 1003.93 1003.78 1003.51 1003.07 1002.85 1002.49 1001.84 1001.14 1000.51 999.83 999.29 998.67 998.14 997.62 997.12 996.53 995.84 995.75 995.62 995.51 995.11 994.84 995.08 995.73 996.68 997.97 998.80 999.20 999.63 1000.17 1000.93 1001.61 1002.70 1003.55 1003.61
1004.46 1004.58 1004.67 1004.53 1004.28 1004.08 1004.35 1004.18 1003.98 1003.65 1003.39 1003.18 1003.34 1003.08 1002.57 1001.74 1001.04 1000.43 999.86 999.10 998.39 997.92 997.39 996.89 996.25 995.52 995.34 994.84 994.42 994.31 994.20 994.15 994.66 995.78 996.95 997.90 998.56 999.10 999.66 1000.72 1001.63 1002.60 1003.67 1004.30
1004.72 1004.99 1004.99 1004.92 1005.20 1004.97 1004.85 1004.72 1004.49 1004.10 1003.81 1003.70 1003.41 1002.95 1002.45 1001.77 1001.05 1000.30 999.51 998.90 998.59 997.96 997.47 996.84 996.03 995.16 994.64 994.06 993.51 993.35 993.45 993.91 994.55 995.53 996.54 997.45 998.16 998.77 999.19 1000.29 1001.37 1002.17 1003.22 1003.98
1005.29 1005.25 1005.71 1005.73 1005.62 1005.40 1005.41 1005.17 1004.84 1004.43 1004.12 1003.78 1003.34 1002.92 1002.38 1001.74 1000.98 1000.36 999.97 999.39 998.78 998.26 997.77 997.05 996.28 995.43 994.57 994.09 993.71 993.78 993.82 994.14 994.53 995.27 996.08 996.87 997.69 998.32 998.73 999.73 1000.87 1001.84 1002.94 1004.05
1005.98 1006.27 1006.48 1006.29 1006.01 1005.77 1005.40 1005.17 1004.84 1004.56 1004.29 1003.88 1003.43 1002.98 1002.44 1001.93 1001.39 1000.76 1000.20 999.58 998.93 998.41 997.98 997.36 996.63 995.80 995.04 994.60 994.35 994.39 994.56 994.78 994.99 995.40 996.04 996.83 997.68 998.33 998.92 999.74 1000.77 1001.82 1003.26 1004.53
1006.15 1006.39 1006.38 1006.36 1006.31 1006.22 1005.86 1005.39 1005.02 1004.68 1004.29 1003.90 1003.48 1003.08 1002.74 1002.31 1001.79 1001.19 1000.56 999.94 999.28 998.77 998.23 997.62 997.05 996.34 995.80 995.39 995.04 994.98 995.09 995.27 995.70 995.98 996.42 997.22 998.05 998.66 999.43 1000.11 1000.93 1002.10 1003.37 1004.72
1006.13 1006.45 1006.44 1006.54 1006.78 1006.67 1006.10 1005.68 1005.19 1004.66 1004.33 1003.97 1003.65 1003.32 1002.94 1002.55 1002.08 1001.44 1000.84 1000.37 1000.00 999.58 998.90 998.28 997.67 997.18 996.75 996.28 995.97 995.82 995.88 996.04 996.35 996.70 997.17 997.72 998.29 999.20 1000.18 1000.62 1001.25 1002.35 1003.69 1004.94
1006.57 1006.60 1007.01 1007.22 1006.98 1006.63 1006.27 1005.82 1005.24 1004.80 1004.45 1004.21 1003.92 1003.68 1003.38 1003.02 1002.64 1002.07 1001.31 1000.85 1000.56 1000.09 999.54 998.98 998.48 998.09 997.73 997.39 997.02 996.95 997.05 997.16 997.40 997.67 997.96 998.53 999.38 1000.04 1000.66 1001.07 1001.86 1003.08 1004.56 1005.81
1006.81 1006.70 1006.89 1006.93 1006.86 1006.51 1006.21 1005.88 1005.41 1005.06 1004.69 1004.41 1004.19 1003.90 1003.52 1003.15 1002.76 1002.58 1002.41 1001.91 1001.27 1000.71 1000.22 999.90 999.57 999.19 998.82 998.49 998.33 998.16 998.06 998.18 998.32 998.60 999.04 999.61 1000.16 1000.92 1001.57 1001.96 1003.03 1004.30 1005.36 1006.59
1006.55 1006.61 1006.57 1006.47 1006.51 1006.29 1006.06 1005.86 1005.53 1005.25 1004.96 1004.67 1004.53 1004.24 1003.91 1003.62 1003.32 1002.97 1002.75 1002.76 1002.32 1001.85 1001.37 1001.08 1000.69 1000.25 999.94 999.72 999.55 999.45 999.46 999.54 999.71 999.93 1000.38 1000.83 1001.39 1001.88 1002.50 1003.09 1004.05 1005.44 1006.14 1007.56
1006.37 1006.41 1006.26 1006.14 1005.80 1005.41 1005.59 1005.64 1005.55 1005.36 1005.21 1004.95 1004.79 1004.63 1004.22 1003.86 1003.72 1003.57 1003.51 1003.40 1003.12 1002.79 1002.46 1002.10 1001.70 1001.36 1001.11 1000.95 1000.81 1000.70 1000.73 1000.82 1001.03 1001.37 1001.75 1002.13 1002.62 1003.17 1003.81 1004.56 1005.42 1006.37 1007.23 1008.13
1006.39 1006.26 1006.05 1005.77 1005.32 1004.90 1005.05 1005.37 1005.37 1005.31 1005.14 1004.89 1004.78 1004.68 1004.49 1004.23 1004.05 1004.04 1003.90 1003.76 1003.68 1003.43 1003.20 1002.94 1002.58 1002.26 1002.11 1002.03 1001.99 1001.96 1002.00 1002.11 1002.28 1002.58 1003.04 1003.48 1003.97 1004.52 1005.18 1005.89 1006.66 1007.40 1008.26 1009.11
1005.96 1005.98 1005.84 1005.55 1005.13 1004.91 1004.90 1005.01 1005.07 1005.14 1005.15 1005.02 1004.98 1004.94 1004.80 1004.66 1004.56 1004.40 1004.37 1004.29 1004.23 1004.13 1003.94 1003.73 1003.43 1003.12 1003.00 1002.97 1003.04 1003.09 1003.16 1003.23 1003.38 1003.79 1004.15 1004.65 1005.21 1005.79 1006.40 1007.06 1007.73 1008.41 1009.14 1009.90
1005.16 1005.66 1005.60 1005.15 1004.82 1004.72 1004.88 1005.00 1005.09 1005.13 1005.14 1005.16 1005.17 1005.17 1005.07 1004.98 1004.91 1004.84 1004.84 1004.87 1004.83 1004.72 1004.56 1004.34 1004.17 1004.02 1003.95 1003.96 1003.99 1004.10 1004.17 1004.41 1004.61 1004.89 1005.34 1005.80 1006.29 1006.80 1007.32 1007.97 1008.64 1009.32 1009.92 1010.54
Thickness
5445 5455 5455 5464 5476 5486 5489 5499 5489 5512 5525 5539 5538 5541 5545 5544 5545 5549 5553 5554 5558 5569 5580 5587 5596 5603 5609 5616 5623 5630 5636 5644 5652 5657 5662 5670 5676 5675 5679 5681 5682 5681 5678 5676
5408 5440 5455 5463 5471 5474 5482 5491 5491 5506 5511 5537 5546 5541 5536 5534 5535 5540 5542 5546 5549 5554 5562 5569 5578 5586 5593 5597 5605 5612 5619 5626 5634 5642 5643 5646 5651 5656 5660 5664 5666 5666 5665 5664
5412 5444 5444 5434 5459 5473 5476 5482 5487 5493 5513 5532 5524 5521 5526 5526 5525 5522 5530 5538 5537 5543 5546 5554 5562 5570 5575 5583 5591 5596 5604 5611 5616 5622 5628 5627 5629 5633 5636 5642 5647 5649 5649 5652
5405 5418 5417 5462 5469 5467 5464 5473 5479 5485 5498 5513 5512 5510 5513 5514 5511 5513 5519 5520 5527 5531 5536 5540 5548 5553 5560 5568 5575 5581 5589 5597 5604 5608 5612 5602 5611 5614 5618 5622 5627 5632 5632 5632
5400 5426 5449 5460 5472 5467 5465 5470 5479 5483 5489 5492 5489 5488 5498 5507 5492 5485 5491 5504 5513 5516 5521 5526 5533 5538 5544 5554 5560 5568 5576 5582 5590 5595 5600 5592 5589 5593 5598 5603 5606 5610 5615 5615
5409 5408 5426 5466 5468 5464 5461 5457 5481 5476 5475 5472 5467 5462 5479 5482 5468 5468 5475 5482 5488 5495 5497 5506 5513 5520 5527 5537 5544 5551 5560 5569 5576 5582 5589 5592 5579 5577 5584 5592 5592 5593 5594 5597
5406 5411 5437 5458 5461 5459 5438 5453 5458 5455 5456 5456 5451 5447 5454 5461 5463 5466 5466 5468 5471 5476 5479 5488 5492 5501 5509 5520 5529 5535 5543 5553 5560 5568 5576 5582 5568 5566 5570 5574 5575 5576 5577 5577
5400 5405 5419 5450 5448 5432 5444 5446 5447 5448 5446 5445 5444 5443 5443 5447 5452 5458 5462 5465 5465 5466 5470 5478 5480 5486 5496 5505 5517 5516 5527 5535 5542 5549 5558 5564 5553 5552 5555 5559 5563 5563 5564 5564
5406 5412 5438 5438 5436 5439 5441 5439 5437 5437 5439 5439 5442 5445 5443 5444 5448 5455 5460 5465 5467 5465 5466 5472 5478 5481 5485 5494 5492 5501 5509 5519 5524 5533 5537 5545 5535 5536 5539 5545 5550 5554 5553 5552
5402 5419 5426 5430 5433 5434 5434 5435 5435 5433 5434 5433 5438 5441 5442 5441 5445 5450 5457 5464 5465 5466 5468 5472 5473 5474 5474 5474 5476 5478 5488 5500 5501 5499 5510 5518 5521 5523 5527 5533 5536 5537 5542 5541
5396 5413 5416 5421 5428 5429 5432 5432 5431 5431 5429 5431 5434 5436 5437 5440 5443 5448 5451 5456 5462 5463 5465 5467 5467 5465 5466 5464 5464 5467 5472 5479 5483 5483 5487 5495 5503 5510 5515 5522 5528 5529 5530 5531
5403 5414 5412 5421 5426 5425 5428 5429 5427 5421 5421 5423 5421 5425 5425 5431 5433 5435 5441 5446 5452 5458 5461 5463 5461 5462 5462 5461 5463 5464 5462 5462 5456 5458 5461 5468 5482 5491 5497 5504 5509 5513 5516 5517
5414 5420 5421 5423 5425 5426 5421 5419 5419 5416 5414 5411 5411 5411 5411 5412 5413 5418 5425 5430 5438 5441 5444 5446 5448 5451 5452 5449 5446 5450 5457 5463 5446 5441 5441 5447 5458 5471 5478 5480 5489 5496 5497 5498
5418 5416 5411 5414 5410 5414 5410 5415 5410 5406 5405 5404 5406 5404 5400 5400 5402 5404 5408 5411 5415 5417 5420 5424 5427 5433 5434 5435 5435 5441 5447 5445 5443 5438 5430 5431 5440 5453 5463 5468 5473 5472 5475 5482
5417 5413 5407 5407 5407 5405 5398 5399 5399 5401 5402 5400 5392 5388 5387 5389 5391 5394 5399 5404 5408 5409 5410 5413 5418 5423 5422 5424 5426 5428 5431 5436 5435 5430 5425 5423 5426 5434 5446 5450 5453 5457 5457 5458
5408 5402 5398 5393 5386 5387 5385 5384 5384 5387 5388 5383 5381 5381 5381 5384 5386 5390 5395 5397 5393 5395 5397 5401 5406 5412 5413 5411 5413 5414 5415 5413 5415 5414 5414 5413 5415 5421 5430 5436 5440 5445 5448 5450
5392 5390 5379 5374 5373 5375 5371 5372 5374 5376 5376 5375 5376 5377 5377 5378 5380 5380 5377 5376 5377 5377 5379 5387 5392 5397 5400 5397 5398 5394 5396 5396 5399 5402 5406 5409 5408 5416 5423 5430 5433 5437 5440 5440
5381 5374 5366 5366 5366 5365 5368 5368 5370 5370 5368 5370 5372 5372 5371 5370 5367 5365 5365 5369 5372 5374 5375 5380 5384 5387 5388 5387 5386 5386 5386 5385 5388 5393 5397 5399 5399 5408 5416 5422 5426 5429 5427 5425
5375 5368 5365 5362 5358 5356 5358 5361 5362 5363 5363 5367 5368 5367 5365 5362 5357 5358 5361 5366 5370 5374 5376 5379 5379 5382 5382 5378 5379 5379 5378 5379 5381 5384 5389 5389 5393 5401 5407 5412 5417 5418 5416 5414
5371 5365 5362 5357 5349 5346 5351 5353 5355 5360 5362 5364 5364 5363 5362 5358 5353 5355 5360 5362 5363 5366 5371 5374 5375 5375 5375 5374 5373 5375 5375 5376 5376 5377 5382 5387 5393 5396 5397 5403 5407 5407 5405 5402
5360 5359 5349 5341 5340 5342 5345 5347 5351 5356 5359 5359 5360 5358 5357 5355 5350 5351 5358 5361 5359 5361 5364 5367 5369 5369 5369 5368 5368 5370 5372 5374 5375 5377 5381 5385 5386 5389 5390 5397 5399 5396 5391 5387
5351 5352 5345 5341 5338 5340 5342 5345 5347 5351 5355 5356 5356 5356 5356 5356 5356 5351 5348 5351 5354 5356 5359 5359 5359 5359 5361 5361 5362 5366 5367 5367 5371 5372 5375 5376 5377 5378 5378 5383 5382 5381 5378 5375
5350 5347 5345 5343 5339 5339 5341 5342 5343 5345 5348 5350 5350 5351 5352 5352 5351 5351 5350 5344 5345 5347 5350 5350 5350 5352 5353 5356 5358 5361 5362 5364 5364 5366 5368 5369 5369 5368 5366 5372 5372 5365 5368 5361
5345 5343 5343 5343 5345 5348 5343 5340 5340 5340 5342 5343 5344 5344 5348 5350 5348 5347 5344 5341 5340 5340 5342 5344 5345 5347 5349 5350 5352 5354 5355 5357 5359 5359 5360 5360 5361 5361 5361 5361 5359 5356 5354 5353
5336 5336 5338 5340 5344 5348 5345 5340 5339 5339 5340 5344 5344 5343 5344 5346 5346 5344 5343 5342 5340 5340 5340 5341 5342 5344 5345 5346 5346 5348 5349 5350 5351 5351 5351 5351 5351 5351 5350 5349 5348 5347 5345 5343
5332 5331 5333 5336 5341 5342 5341 5340 5339 5338 5337 5339 5338 5337 5339 5340 5340 5341 5339 5338 5337 5337 5337 5337 5339 5342 5343 5344 5343 5343 5344 5345 5346 5345 5345 5345 5344 5343 5342 5341 5340 5338 5336 5335
5333 5323 5327 5333 5337 5337 5334 5333 5333 5332 5332 5332 5332 5332 5334 5335 5335 5335 5333 5332 5332 5332 5333 5335 5337 5338 5339 5339 5339 5339 5340 5339 5340 5340 5339 5339 5338 5338 5338 5336 5333 5331 5330 5328